Regional Weather Roundup
Issued by NWS Charleston, SC

Current Version | Previous Version | Text Only | Print | Product List | Glossary Off
Versions: 1 2 3 4 5 6 7 8 9 10 11 12 13 14 15 16 17 18 19 20 21 22 23 24 25 26 27 28 29 30 31 32 33 34 35 36 37 38 39 40 41 42 43 44 45 46 47 48 49 50
000 ASUS42 KCHS 270813 RWRCHS REGIONAL WEATHER ROUNDUP NATIONAL WEATHER SERVICE CHARLESTON SC 400 AM EDT FRI MAY 27 2016 NOTE: "FAIR" INDICATES FEW OR NO CLOUDS BELOW 12,000 FEET WITH NO SIGNIFICANT WEATHER AND/OR OBSTRUCTIONS TO VISIBILITY. NOT ALL STATIONS ARE QUALITY CONTROLLED. USE DATA WITH CAUTION... ESPECIALLY DEWPOINT OBSERVATIONS. SCZ027-030-031-034>040-042>050-270900- ...SOUTHEAST SOUTH CAROLINA... CITY SKY/WX TMP DP RH WIND PRES REMARKS N CHARLESTON CLEAR 64 61 90 N3 30.11R WATERFRONT PRK N/A 75 65 70 VRB2 30.08F MOUNT PLEASANT FAIR 64 63 94 CALM 30.11S JOHNS ISLAND FAIR 64 63 94 CALM 30.11R PINOPOLIS N/A 72 66 83 CALM 30.05R MONCKS CORNER NOT AVBL SUMMERVILLE FAIR 63 63 100 CALM 30.13R BEAUFORT MCAS PTCLDY 66 63 90 CALM 30.11R BEAUFORT ARPT FAIR 68 63 83 CALM 30.11R HILTON HEAD IS CLEAR 70 61 73 CALM 30.11S WALTERBORO MOSUNNY 63 63 100 CALM 30.13R ALLENDALE FAIR 64 63 94 MISG 30.11S ...SOUTHERN MIDLANDS AND PEE DEE... CITY SKY/WX TMP DP RH WIND PRES REMARKS GEORGETOWN FAIR 61 59 94 CALM 30.14R KINGSTREE FAIR 63 59 88 CALM 30.13S ORANGEBURG CLEAR 64 61 90 CALM 30.13S BARNWELL FAIR 66 66 100 CALM 30.13S AIKEN PTSUNNY 66 59 77 CALM 30.15S MANNING FAIR 63 61 94 N3 30.13S COLUMBIA CLEAR 70 60 70 CALM 30.12S SUMTER CLEAR 65 60 84 E2 30.11S FLORENCE PTCLDY 67 62 84 CALM 30.14S MYRTLE BEACH PTCLDY 68 57 68 CALM 30.15S N MYRTLE BEACH CLEAR 67 64 90 CALM 30.13S $$ GAZ063-065-086>088-099>101-113>116-118-119-134>141-150-270900- ...SOUTHEAST GEORGIA... CITY SKY/WX TMP DP RH WIND PRES REMARKS SAVANNAH ARPT CLEAR 66 63 90 N5 30.11R HUNTER AAF CLEAR 64 63 95 VRB2 30.08R FORT STEWART CLEAR 62 59 92 CALM 30.08S STATESBORO CLEAR 64 63 98 CALM 30.10F SYLVANIA SUNNY 65 63 91 CALM 30.12S CLAXTON FAIR 61 61 98 CALM 30.11S ...CSRA...CENTRAL AND FAR SOUTHEAST GEORGIA... CITY SKY/WX TMP DP RH WIND PRES REMARKS THOMSON CLEAR 72 62 71 SE5 30.14F AUGUSTA-BUSH CLEAR 63 60 90 CALM 30.10F AUGUSTA-DANIEL CLEAR 69 58 67 SE5 30.12S SWAINSBORO FAIR 64 61 88 E3 30.11S VIDALIA CLEAR 64 61 88 CALM 30.09F EASTMAN FAIR 68 61 78 CALM 30.11S HAZLEHURST FAIR 65 64 94 CALM 30.07F ALMA CLEAR 60 60 100 CALM 30.08F WAYCROSS CLEAR 63 62 99 CALM 30.09S JESUP FAIR 55 54 94 CALM 30.09F BAXLEY FAIR 63 63 100 E3 30.08F BRUNSWICK FOG 64 61 88 CALM 30.09S VSB 3/4 SAINT SIMONS CLEAR 72 59 63 SE5 30.07F $$ SCZ027-028-034-036>038-045-046-048>050-GAZ119-141-270900- ...LAKE AND SUPPLEMENTAL COASTAL OBSERVATIONS... STATION/POSITION TIME TEMP WIND PRES WAVE SWELL AIR SEA DIR/SP/G HT/PER HT/PER/DIR (UTC) (F) (DEG/KT/KT) (MB) (FT/S) (FT/S/D) WINYAH BAY 0645 72 CALM 1019.0 LAKE MURRAY 0700 72 180/ 9/ 11 1019.3S ACE BASIN NERRS NOT AVBL FORT PULASKI 0700 74 77 130/ 4/ 6 1019.3S SAPELO ISLAND 0700 71 110/ 2 1019.0S $$ ANZ835-935-AMZ111-154-330-350-352-354-370-450-454-472-270900- ...C-MAN AND BUOY OBSERVATIONS... STATION/POSITION TIME TEMP WIND PRES WAVE SWELL AIR SEA DIR/SP/G HT/PER HT/PER/DIR (UTC) (F) (DEG/KT/KT) (MB) (FT/S) (FT/S/D) BUOY 41004 0750 76 77 120/ 8/ 10 1019.0F 2/ 8 2/ 8 BUOY 41008 0750 76 76 120/ 6/ 10 1018.6S 2/ 5 2/110/ 5 FOLLY BEACH CMAN 0700 76 140/ 11/ 12 1019.5F CAPERS NEARSHORE 0708 76 76 160/ 8/ 12 1019.4F FRIPP NEARSHORE 0708 76 76 140/ 12/ 14 1018.2F STATION/POSITION TIME TEMP WIND PRES WAVE SWELL AIR SEA DIR/SP/G HT/PER HT/PER/DIR (UTC) (F) (DEG/KT/KT) (MB) (FT/S) (FT/S/D) 5E ST. MARYS GA 0801 77 N/A 3/ 5 FRYING PAN BUOY 0700 76 76 170/ 6/ 10 1020.1R BUOY 41025 0750 76 72 180/ 10/ 14 1021.0R 2/ 8 2/300/ 8 CAPE LOOKOUT NC 0800 72 200/ 4/ 5 1020.9R BUOY 41002 0750 76 77 60/ 14/ 16 1018.6F 3/ 8 2/110/ 8 BUOY 41010 0720 76 79 60/ 10/ 12 1016.9F ST AUGUSTINE FL 0800 76 79 110/ 10/ 11 1018.3F $$

USA.gov is the U.S. government's official web portal to all federal, state and local government web resources and services.